• In Netherlands
  • List of Countries
  • For 7 days
  • Water Temperature
  • Satellite Maps
  • Weather Map
  • Weather Widgets
  • user-avatar
    Login

    Hourly Weather Kitzbuhel

    Today, 23 October, Monday

    Time Temperature Precipitation Wind Pressure Humidity
    00:00 +2°C° 0.9 mm 3 mps 675 mmHg 95%
    01:00 +3°C° 0 mm 2 mps 675 mmHg 94%
    02:00 +3°C° 0.9 mm 2 mps 675 mmHg 94%
    03:00 +2°C° 0.9 mm 3 mps 675 mmHg 94%
    04:00 +2°C° 0.9 mm 3 mps 675 mmHg 95%
    05:00 +2°C° 0.9 mm 3 mps 675 mmHg 95%
    06:00 +2°C° 0.9 mm 3 mps 675 mmHg 95%
    07:00 +3°C° 0 mm 2 mps 675 mmHg 95%
    08:00 +2°C° 0.8 mm 3 mps 675 mmHg 93%
    09:00 +2°C° 0.8 mm 3 mps 675 mmHg 92%
    10:00 +3°C° 0.8 mm 3 mps 676 mmHg 90%
    11:00 +3°C° 0.7 mm 3 mps 676 mmHg 90%
    12:00 +3°C° 0.7 mm 3 mps 676 mmHg 90%
    13:00 +3°C° 0 mm 3 mps 676 mmHg 89%
    14:00 +3°C° 0.6 mm 3 mps 676 mmHg 90%
    15:00 +3°C° 0.6 mm 3 mps 677 mmHg 91%
    16:00 +3°C° 0.6 mm 3 mps 677 mmHg 92%
    17:00 +3°C° 0.9 mm 3 mps 677 mmHg 93%
    18:00 +3°C° 0.9 mm 2 mps 678 mmHg 94%
    19:00 +3°C° 0.9 mm 2 mps 678 mmHg 95%
    20:00 +3°C° 1.1 mm 2 mps 678 mmHg 95%
    21:00 +2°C° 1.1 mm 3 mps 679 mmHg 95%
    22:00 +2°C° 1.1 mm 3 mps 679 mmHg 95%
    23:00 +2°C° 0.8 mm 3 mps 679 mmHg 96%

    Tomorrow, 24 October, Tuesday

    Time Temperature Precipitation Wind Pressure Humidity
    00:00 +3°C° 0.8 mm 2 mps 680 mmHg 96%
    01:00 +3°C° 0.8 mm 2 mps 680 mmHg 96%
    02:00 +3°C° 0.7 mm 2 mps 680 mmHg 96%
    03:00 +3°C° 0.7 mm 2 mps 680 mmHg 96%
    04:00 +3°C° 0.7 mm 2 mps 681 mmHg 96%
    05:00 +3°C° 0.4 mm 2 mps 681 mmHg 96%
    06:00 +3°C° 0.4 mm 2 mps 681 mmHg 96%
    07:00 +3°C° 0.4 mm 2 mps 681 mmHg 96%
    08:00 +4°C° 0.1 mm 2 mps 681 mmHg 95%
    09:00 +5°C° 0.1 mm 2 mps 681 mmHg 93%
    10:00 +6°C° 0.1 mm 2 mps 682 mmHg 91%
    11:00 +6°C° 0.1 mm 2 mps 682 mmHg 89%
    12:00 +7°C° 0.1 mm 2 mps 682 mmHg 87%
    13:00 +8°C° 0.1 mm 2 mps 682 mmHg 84%
    14:00 +8°C° 0 mm 2 mps 682 mmHg 86%
    15:00 +7°C° 0 mm 2 mps 681 mmHg 87%
    16:00 +7°C° 0 mm 2 mps 681 mmHg 88%
    17:00 +6°C° 0 mm 2 mps 682 mmHg 88%
    18:00 +5°C° 0 mm 2 mps 682 mmHg 88%
    19:00 +5°C° 0 mm 2 mps 683 mmHg 88%
    20:00 +4°C° 0 mm 2 mps 683 mmHg 88%
    21:00 +4°C° 0 mm 2 mps 683 mmHg 88%
    22:00 +4°C° 0 mm 2 mps 683 mmHg 88%
    23:00 +4°C° 0 mm 2 mps 683 mmHg 88%

    Day after tomorrow, 25 October, Wednesday

    Time Temperature Precipitation Wind Pressure Humidity
    00:00 +4°C° 0 mm 2 mps 683 mmHg 88%
    01:00 +4°C° 0 mm 2 mps 682 mmHg 87%
    02:00 +5°C° 0 mm 2 mps 682 mmHg 86%
    03:00 +5°C° 0 mm 2 mps 682 mmHg 85%
    04:00 +5°C° 0 mm 2 mps 682 mmHg 85%
    05:00 +5°C° 0 mm 2 mps 682 mmHg 85%
    06:00 +5°C° 0 mm 2 mps 682 mmHg 85%
    07:00 +6°C° 0 mm 2 mps 682 mmHg 86%
    08:00 +8°C° 0 mm 1 mps 683 mmHg 85%
    09:00 +10°C° 0 mm 1 mps 683 mmHg 84%
    10:00 +12°C° 0 mm 1 mps 684 mmHg 83%
    11:00 +13°C° 0 mm 1 mps 684 mmHg 81%
    12:00 +13°C° 0 mm 1 mps 684 mmHg 80%
    13:00 +14°C° 0 mm 1 mps 684 mmHg 78%
    14:00 +14°C° 0 mm 1 mps 683 mmHg 81%
    15:00 +13°C° 0 mm 1 mps 683 mmHg 84%
    16:00 +12°C° 0 mm 1 mps 683 mmHg 87%
    17:00 +11°C° 0 mm 1 mps 683 mmHg 87%
    18:00 +10°C° 0 mm 1 mps 683 mmHg 88%
    19:00 +8°C° 0 mm 1 mps 683 mmHg 88%
    20:00 +8°C° 0 mm 1 mps 683 mmHg 87%
    21:00 +7°C° 0 mm 2 mps 684 mmHg 85%
    22:00 +7°C° 0 mm 2 mps 684 mmHg 84%
    23:00 +7°C° 0 mm 1 mps 684 mmHg 82%

    26 October, Thursday

    Time Temperature Precipitation Wind Pressure Humidity
    00:00 +7°C° 0 mm 1 mps 684 mmHg 81%
    01:00 +7°C° 0 mm 1 mps 684 mmHg 80%
    02:00 +7°C° 0 mm 1 mps 684 mmHg 79%
    03:00 +7°C° 0 mm 1 mps 684 mmHg 78%
    04:00 +7°C° 0 mm 1 mps 683 mmHg 77%
    05:00 +8°C° 0 mm 1 mps 683 mmHg 76%
    06:00 +8°C° 0 mm 1 mps 683 mmHg 75%
    07:00 +8°C° 0 mm 1 mps 683 mmHg 74%
    08:00 +10°C° 0 mm 1 mps 684 mmHg 73%
    09:00 +12°C° 0 mm 1 mps 684 mmHg 72%
    10:00 +14°C° 0 mm 1 mps 684 mmHg 71%
    11:00 +15°C° 0 mm 1 mps 684 mmHg 69%
    12:00 +16°C° 0 mm 1 mps 684 mmHg 66%
    13:00 +18°C° 0 mm 1 mps 684 mmHg 64%
    14:00 +16°C° 0 mm 1 mps 684 mmHg 69%
    15:00 +14°C° 0 mm 0 mps 683 mmHg 74%
    16:00 +13°C° 0 mm 0 mps 683 mmHg 79%
    17:00 +12°C° 0 mm 1 mps 683 mmHg 80%
    18:00 +11°C° 0 mm 1 mps 683 mmHg 81%
    19:00 +8°C° 0 mm 2 mps 683 mmHg 82%
    20:00 +8°C° 0 mm 2 mps 683 mmHg 80%
    21:00 +8°C° 0 mm 2 mps 683 mmHg 79%
    22:00 +8°C° 0 mm 2 mps 683 mmHg 77%
    23:00 +7°C° 0 mm 2 mps 682 mmHg 75%

    27 October, Friday

    Time Temperature Precipitation Wind Pressure Humidity
    00:00 +7°C° 0 mm 2 mps 682 mmHg 74%
    01:00 +7°C° 0 mm 2 mps 682 mmHg 72%
    02:00 +7°C° 0 mm 2 mps 681 mmHg 72%
    03:00 +7°C° 0 mm 2 mps 681 mmHg 72%
    04:00 +7°C° 0 mm 2 mps 681 mmHg 72%
    05:00 +7°C° 0 mm 2 mps 681 mmHg 72%
    06:00 +7°C° 0 mm 2 mps 680 mmHg 73%
    07:00 +7°C° 0 mm 2 mps 680 mmHg 74%
    08:00 +9°C° 0 mm 2 mps 680 mmHg 72%
    09:00 +12°C° 0 mm 2 mps 680 mmHg 70%
    10:00 +14°C° 0 mm 1 mps 680 mmHg 69%
    11:00 +14°C° 0 mm 2 mps 680 mmHg 68%
    12:00 +15°C° 0 mm 2 mps 679 mmHg 68%
    13:00 +14°C° 0 mm 3 mps 679 mmHg 67%
    14:00 +13°C° 0.2 mm 3 mps 678 mmHg 72%
    15:00 +12°C° 0.2 mm 3 mps 678 mmHg 78%
    16:00 +11°C° 0.2 mm 3 mps 677 mmHg 83%
    17:00 +10°C° 1.8 mm 3 mps 677 mmHg 87%
    18:00 +9°C° 1.8 mm 3 mps 677 mmHg 91%
    19:00 +8°C° 1.8 mm 3 mps 677 mmHg 94%
    20:00 +7°C° 2.5 mm 3 mps 678 mmHg 95%
    21:00 +7°C° 2.5 mm 3 mps 678 mmHg 96%
    22:00 +5°C° 2.5 mm 3 mps 679 mmHg 96%
    23:00 +4°C° 0.3 mm 3 mps 679 mmHg 96%

    28 October, Saturday

    Time Temperature Precipitation Wind Pressure Humidity
    00:00 +5°C° 0.3 mm 2 mps 679 mmHg 95%
    01:00 +4°C° 0.3 mm 2 mps 679 mmHg 95%
    02:00 +3°C° 0.1 mm 2 mps 679 mmHg 95%
    03:00 +3°C° 0.1 mm 2 mps 679 mmHg 95%
    04:00 +2°C° 0.1 mm 2 mps 679 mmHg 95%
    05:00 +2°C° 0.1 mm 2 mps 679 mmHg 95%
    06:00 +2°C° 0.1 mm 2 mps 679 mmHg 95%
    07:00 +2°C° 0.1 mm 2 mps 679 mmHg 94%
    08:00 +3°C° 0.1 mm 2 mps 679 mmHg 90%
    09:00 +3°C° 0.1 mm 2 mps 679 mmHg 86%
    10:00 +4°C° 0.1 mm 2 mps 678 mmHg 82%
    11:00 +4°C° 0.3 mm 3 mps 678 mmHg 79%
    12:00 +4°C° 0.3 mm 3 mps 678 mmHg 76%
    13:00 +5°C° 0.3 mm 3 mps 677 mmHg 73%
    14:00 +4°C° 0.8 mm 3 mps 677 mmHg 78%
    15:00 +3°C° 0.8 mm 3 mps 677 mmHg 83%
    16:00 +3°C° 0.8 mm 3 mps 676 mmHg 87%
    17:00 +2°C° 0.9 mm 3 mps 677 mmHg 89%
    18:00 +2°C° 0.9 mm 3 mps 677 mmHg 91%
    19:00 +2°C° 0.9 mm 3 mps 677 mmHg 92%
    20:00 +2°C° 0.9 mm 3 mps 677 mmHg 93%
    21:00 +2°C° 0.9 mm 3 mps 677 mmHg 93%
    22:00 +2°C° 0.9 mm 3 mps 677 mmHg 93%
    23:00 +2°C° 0.8 mm 3 mps 677 mmHg 93%

    29 October, Sunday

    Time Temperature Precipitation Wind Pressure Humidity
    00:00 +1°C° 0.8 mm 3 mps 677 mmHg 93%
    01:00 +1°C° 0.8 mm 3 mps 677 mmHg 93%
    02:00 +1°C° 0.5 mm 3 mps 676 mmHg 93%
    03:00 +1°C° 0.5 mm 3 mps 676 mmHg 93%
    04:00 +1°C° 0.5 mm 3 mps 676 mmHg 93%
    05:00 +1°C° 0.3 mm 3 mps 676 mmHg 93%
    06:00 +1°C° 0.3 mm 3 mps 677 mmHg 93%
    07:00 +1°C° 0.3 mm 3 mps 677 mmHg 92%
    08:00 +2°C° 0.2 mm 3 mps 677 mmHg 91%
    09:00 +3°C° 0.2 mm 3 mps 677 mmHg 89%
    10:00 +3°C° 0.2 mm 3 mps 677 mmHg 87%
    11:00 +4°C° 0.1 mm 3 mps 677 mmHg 86%
    12:00 +5°C° 0.1 mm 3 mps 676 mmHg 84%
    13:00 +5°C° 0.1 mm 3 mps 676 mmHg 83%
    14:00 +6°C° 0 mm 2 mps 676 mmHg 84%
    15:00 +6°C° 0 mm 2 mps 675 mmHg 86%
    16:00 +6°C° 0 mm 2 mps 675 mmHg 88%
    17:00 +5°C° 0 mm 2 mps 675 mmHg 90%
    18:00 +4°C° 0 mm 2 mps 675 mmHg 91%
    19:00 +3°C° 0 mm 2 mps 675 mmHg 93%
    20:00 +3°C° 0.3 mm 2 mps 675 mmHg 93%
    21:00 +3°C° 0.3 mm 2 mps 675 mmHg 93%
    22:00 +3°C° 0.3 mm 2 mps 675 mmHg 92%
    23:00 +4°C° 0.7 mm 2 mps 674 mmHg 93%
    Show more